Regional Weather Roundup
Issued by NWS

Home | Current Version | Previous Version | Text Only | Print | Product List | Glossary On
Versions: 1 2 3 4 5 6 7 8 9 10 11 12 13 14 15 16 17 18 19 20 21 22 23 24 25 26 27 28 29 30 31 32 33 34 35 36 37 38 39 40 41 42 43 44 45 46 47 48 49 50
776
ASUS45 KABQ 310810
RWRNM
NEW MEXICO REGIONAL WEATHER ROUNDUP
NATIONAL WEATHER SERVICE ALBUQUERQUE NM
200 AM MDT SUN JUL 31 2016

NOTE: "FAIR" MEANS FEW OR NO CLOUDS BELOW 12,000 FEET AGL WITH NO
       SIGNIFICANT WEATHER OR OBSTRUCTIONS TO VISION.

      THIS PRODUCT IS RELEASED AS TWO VERSIONS.  ONE VERSION NEAR
      THE TOP OF THE HOUR CONTAINING PRELIMINARY DATA FROM ALBUQUERQUE
      AND OTHER STATIONS.  A FINAL VERSION WITH ADDITIONAL DATA IS
      ISSUED ABOUT 10 MINUTES AFTER THE HOUR.

NMZ501-503-504-510>518-310900-
NORTHWEST PLATEAU/NORTHCENTRAL MOUNTAINS

CITY           SKY/WX    TMP DP  RH WIND       PRES   REMARKS
FARMINGTON     CLOUDY    71  56  58 CALM      30.15S
LOS ALAMOS     FAIR      61  49  65 CALM      30.29S
SANTA FE       FAIR      62  50  64 CALM      30.22F
TAOS           FAIR      57  39  51 NW6       30.31R
ANGEL FIRE     FAIR      46  43  91 CALM      30.37F

$$
NMZ402-403-502-505>509-310900-
WESTCENTRAL MOUNTAINS/SOUTHWEST MOUNTAINS

CITY           SKY/WX    TMP DP  RH WIND       PRES   REMARKS
GALLUP         FAIR      65  52  62 SW3       30.25F
GRANTS         MOCLDY    65  50  58 S8        30.26F
SILVER CITY    FAIR      66  52  60 NW5       30.11F

$$
NMZ407-409-411-412-310900-
SOUTHERN DESERTS

CITY           SKY/WX    TMP DP  RH WIND       PRES   REMARKS
LORDSBURG      FAIR      73  54  49 W8        30.03F
DEMING         FAIR      77  54  44 SW6       30.02F
LAS CRUCES     FAIR      74  50  43 CALM      30.06S
HOLLOMAN AFB   FAIR      82  54  37 SE16      30.00F
ALAMOGORDO     FAIR      81  54  39 S10       30.03F
T OR C         HVY RAIN  70  57  63 NW14      30.12R

$$
NMZ519>523-310900-
CENTRAL VALLEYS/CENTRAL HIGHLANDS

CITY           SKY/WX    TMP DP  RH WIND       PRES   REMARKS
ALBUQUERQUE    CLOUDY    68  57  68 N6        30.16S
DOUBLE EAGLE   FAIR      64  56  76 NW6       30.20S
MORIARTY ARPT  FAIR      60  53  77 E8        30.22S
CLINES CORNERS FAIR      58  50  75 SE10      30.28R
BELEN          FAIR      66  59  77 SE3       30.12F
SOCORRO        FAIR      69  54  58 NW12      30.12F

$$
NMZ524>526-539-540-310900-
SOUTHCENTRAL MOUNTAINS

CITY           SKY/WX    TMP DP  RH WIND       PRES   REMARKS
RUIDOSO          N/A     66  48  52 NE3       30.25F

$$
NMZ527>531-310900-
NORTHEAST HIGHLANDS/NORTHEAST PLAINS

CITY           SKY/WX    TMP DP  RH WIND       PRES   REMARKS
LAS VEGAS      FAIR      56  48  74 SW7       30.25F
RATON          FAIR      52  50  93 N7        30.20F
CLAYTON        FAIR      68  54  60 SW17G25   30.07F

$$
NMZ532>537-310900-
EASTCENTRAL PLAINS

CITY           SKY/WX    TMP DP  RH WIND       PRES   REMARKS
TUCUMCARI      LGT RAIN  70  58  65 SW16G30   30.07F
CANNON AFB     PTCLDY    71  58  64 N8        30.10S
CLOVIS AIRPORT FAIR      72  55  56 N9        30.10S

$$
NMZ028-029-538-310900-
SOUTHEAST PLAINS

CITY           SKY/WX    TMP DP  RH WIND       PRES   REMARKS
ROSWELL        FAIR      77  54  44 S7        30.01F
ARTESIA        FAIR      79  59  50 S12       30.01F
CARLSBAD       FAIR      78  58  49 S6        29.99F
HOBBS          FAIR      75  59  57 SE10      30.05F


$$




USA.gov is the U.S. government's official web portal to all federal, state and local government web resources and services.